www.pogodaiklimat.ru

Погода и климат >> Архив погоды >> Мьянма >> Калева


ПОГОДА в Калеве

  • Прогноз погоды в Калеве
  • Монитор погоды в Калеве

АРХИВ ПОГОДЫ в Калеве

Время (UTC), дата Ветер
(напр.,м/с)
 
Видим.   Явления Облачность Т
(С)
Тd
(С)
f
(%)
Тe
(С)
Тes
(С)
Комфортность P
(гПа)
Po
(гПа)
Тmin
(С)
Tmax
(С)
R
(мм)
R24
(мм)
S
(см)
00 9.06 штиль 0 4000 м 5/1 300 м
[Sc Ac lent Ci fib]
+27.6 +26.8 95 +43 +44 опасность
перегрева
1003.3 990.9 +23.6
03 9.06 СВ 1 5000 м 6/3 300 м
[Cu Sc Ac lent Ci fib]
+30.4 +25.3 74 +44 +53 опасность
перегрева
1004.7 992.4
06 9.06 штиль 0 10 км 8/4 300 м
[Cu Sc Ac As]
+36.1 +27.8 62 +56 +65 опасность
перегрева
1003.1 991.1
09 9.06 ЮЗ 1 8000 м 9/6 300 м
[Cb calv Ac As]
+36.2 +27.8 62 +56 +59 опасность
перегрева
1000.2 988.2
12 9.06 ЮЗ 1 4000 м 10/6 300 м
[Cu Sc Ac As]
+34.7 +28.0 68 +55 +55 опасность
перегрева
1000.0 988.0 +37.0
00 10.06 штиль 0 4000 м 6/4 300 м
[Cu Sc Ac lent Ci fib]
+28.0 +25.0 84 +40 +41 очень
душно
1002.1 989.8 +24.0
03 10.06 СВ 1 5000 м 6/5 300 м
[Cu Sc Ac lent]
+31.8 +26.5 74 +49 +56 опасность
перегрева
1003.1 990.9
06 10.06 Ю 1 10 км 8/6 300 м
[Cu Sc Ac As]
+36.2 +26.4 57 +52 +59 опасность
перегрева
1001.8 989.8
09 10.06 2500 м гроза без осадков н/о +36.8 +27.4 59 +56 +56 опасность
перегрева
1000.2 988.3
12 10.06 ЮЗ 1 5000 м {гроза, морось} 9/5 300 м
[Cu Sc As op]
+31.7 +26.5 74 +48 +48 опасность
перегрева
1000.6 988.4 +37.5 0.0
00 11.06 СЗ 1 3000 м 10/6 300 м
[Cu Sc Ac As]
+28.0 +25.0 84 +40 +41 очень
душно
1002.3 990.0 +24.0
03 11.06 СВ 1 2000 м гроза с градом 10/6 100 м
[Cb cap Ac As]
+26.0 +26.0 100 +39 +41 очень
душно
1005.0 992.6
06 11.06 СВ 1 4000 м слаб. морось {гроза, дождь} 9/5 100 м
[Cu Sc Ac As]
+27.4 +27.4 100 +44 +49 опасность
перегрева
1003.0 990.6
09 11.06 СВ 2 10 км 9/5 200 м
[Cb calv Ac As]
+31.8 +26.7 74 +49 +51 опасность
перегрева
1001.0 988.8
12 11.06 штиль 0 4000 м {гроза, морось} 9/5 200 м
[Cu Sc Ac As]
+30.9 +26.7 78 +48 +48 опасность
перегрева
1000.7 988.5 +32.0 64
00 12.06 штиль 0 2000 м слаб. морось {гроза, дождь} 10/6 200 м
[Cb cap Ac As]
+26.4 +26.4 100 +40 +40 очень
душно
1002.6 990.2 +22.8 10
03 12.06 штиль 0 2000 м {морось} 10/6 200 м
[Frnb Ac As]
+26.8 +24.6 88 +38 +40 очень
душно
1004.6 992.2
06 12.06 СЗ 1 8000 м {морось} 9/5 100 м
[Cu Sc Ac As]
+27.8 +25.0 85 +40 +46 очень
душно
1004.3 991.9
09 12.06 штиль 0 8000 м 8/1 300 м
[Cu Sc Ac As]
+30.8 +28.2 86 +51 +57 опасность
перегрева
1001.3 989.1
12 12.06 штиль 0 5000 м 6/4 300 м
[Cu Sc Ac lent Ci fib]
+30.4 +26.6 80 +47 +47 опасность
перегрева
999.6 987.4 +31.3 4
00 13.06 СЗ 2 3000 м слаб. морось {дождь} 10/6 200 м
[Frnb Ac As]
+26.4 +24.6 90 +37 +37 очень
душно
1002.1 989.7 +22.2 5
03 13.06 штиль 0 3000 м слаб. морось 10/6 200 м
[Frnb Ac As]
+27.0 +25.6 92 +40 +42 очень
душно
1003.7 991.3
06 13.06 СЗ 1 8000 м {дождь, морось} 8/5 300 м
[Cu Sc Ac As]
+30.8 +26.7 79 +48 +55 опасность
перегрева
1002.5 990.3
12 13.06 штиль 0 4000 м {дождь} 10/6 100 м
[Cu Sc Ac As]
+27.2 +27.2 100 +43 +43 опасность
перегрева
999.5 987.2 +32.2 17
00 14.06 С 1 2000 м слаб. морось {дождь} 10/6 100 м
[Frnb As op]
+26.0 +26.0 100 +39 +39 очень
душно
998.9 986.5 +22.6 11
03 14.06 ЮЗ 1 2000 м слаб. морось {дождь} 10/6 100 м
[Frnb Ac As]
+26.4 +26.4 100 +40 +42 очень
душно
1001.1 988.7
06 14.06 штиль 0 2000 м слаб. дождь {морось} 10/6 50 м
[Frnb As op]
+26.6 +26.6 100 +41 +43 опасность
перегрева
1002.3 989.9
09 14.06 СЗ 1 4000 м {дождь} 10/6 100 м
[Frnb As op]
+26.8 +26.8 100 +42 +43 опасность
перегрева
999.2 986.9
12 14.06 СВ 1 3000 м {дождь} 9/6 200 м
[Frnb Ac As]
+26.2 +24.6 91 +37 +37 очень
душно
998.4 986.1 +27.4 40
00 15.06 СВ 1 3000 м 10/6 200 м
[Frnb Ac As]
+27.0 +25.6 92 +40 +40 очень
душно
1000.2 987.9 +23.2
03 15.06 штиль 0 3000 м 10/6 200 м
[Frnb Ac As]
+27.0 +25.6 92 +40 +42 очень
душно
1002.8 990.4
06 15.06 штиль 0 3000 м слаб. морось 10/6 200 м
[Frnb Ac As]
+27.8 +25.0 85 +40 +44 очень
душно
1002.6 990.3
09 15.06 Ю 1 6000 м 10/6 200 м
[Frnb Ac As]
+29.0 +27.4 91 +47 +48 опасность
перегрева
1000.1 987.8
12 15.06 Ю 1 3000 м 10/6 200 м
[Frnb Ac As]
+28.0 +26.8 93 +44 +44 опасность
перегрева
999.7 987.4 +29.5 0.0

 

Местоположение метеостанции Калева (Мьянма): широта 23.20 долгота 94.30 высота над уровнем моря 109 м.

В архиве по умолчанию представлена погода в Калеве за последнюю неделю. Архивные данные за месяц целиком и за предыдущие месяцы, начиная с января 2011 года, Вы можете получить, выбрав интересующий диапазон дат из раскрывающегося списка и нажав кнопку "Ввод!".


*Определитесь, кто Вы:
робот инопланетянин человек

Внимание! Время в таблицах - всемирное. Для получения местного времени необходимо прибавить поправку, которая равна 6.5 ч.

Смотрите также архив погоды в соседних городах и на ближайших метеорологических станциях:

Погода в Молейке (Мьянма) (49 км)
Погода в Пхалане (Мьянма) (71 км)
Погода в Хакхе (Мьянма) (93 км)
Погода в Моунъюа (Мьянма) (149 км)
Погода в Шуэбо (Мьянма) (161 км)
Погода в Импхале (Манипур, Индия) (168 км)
Погода в Аиджале (Мизорам, Индия) (172 км)
Погода в Ленгпи (Мизорам, Индия) (185 км)
Погода в Хомалине (Мьянма) (196 км)
Погода в Миндате (Мьянма) (206 км)

Пояснения к столбцам:

Ветер - указаны скорость ветра в м/с - средняя за 10 мин, порывы в срок и между сроками (в фигурных скобках) и направление, откуда дует ветер: С - северный, СВ - северо-восточный, В - восточный, ЮВ - юго-восточный, Ю - южный, ЮЗ - юго-западный, З - западный, СЗ - северо-западный.
Видимость - горизонтальная дальность видимости в метрах или километрах. При видимости от 1 до 10 км при отсутствии осадков обычно наблюдается дымка, при ухудшении видимости до 1 км и менее - туман. В сухую погоду видимость может ухудшаться дымом, пылью или мглою.
Явления - указаны атмосферные явления, наблюдавшиеся в срок или в последний час перед сроком; фигурными скобками обозначены явления, наблюдавшиеся между сроками (за 1-3 часа до срока); квадратными скобками обозначены град или гололедные отложения с указанием их диаметра в мм.
Облачность - указаны через наклонную черту общая и нижняя облачность в баллах и высота нижней границы облаков в метрах; квадратными скобками обозначены формы облаков: Ci - перистые, Cs - перисто-слоистые, Cc - перисто-кучевые, Ac - высококучевые, As - высокослоистые, Sc - слоисто-кучевые, Ns - слоисто-дождевые, Cu - кучевые, Cb - кучево-дождевые. Подробнее классификацию облаков см. в Атласе облаков (PDF).
T - Температура воздуха - температура, измеренная на высоте 2 м над землей.
Td - Температура точки росы - температура, при понижении до которой содержащийся в воздухе водяной пар достигнет насыщения.
f - Относительная влажность воздуха - влажноcть воздуха, измеренная на высоте 2 м над землей.
Te - Эффективная температура - температура, которую ощущает одетый по сезону человек в тени. Характеристика душности погоды. При расчете учитывается влияние влажности воздуха и скорости ветра на теплоощущения человека.
Tes - Эффективная температура на солнце - температура, которую ощущает человек, с поправкой на солнечный нагрев. Характеристика знойности погоды. Зависит от высоты солнца над горизонтом, облачности и скорости ветра. Ночью, в пасмурную погоду, а также при ветре 12 м/с и более поправка равна нулю.
P - Атмосферное давление - приведенное к уровню моря атмосферное давление.
Po - Атмосферное давление - измеренное на уровне метеостанции атмосферное давление.
Tmin - Минимальная температура - минимум температуры воздуха на высоте 2 м над землей.
Tmax - Максимальная температура - максимум температуры воздуха на высоте 2 м над землей.
R - Количество осадков - Количество выпавших осадков за период времени, мм. При наведении курсора мыши на число - период времени, за который выпало указанное количество осадков.
R24 - Количество осадков - Количество выпавших осадков за 24 часа, мм.
S - Снежный покров - Высота снежного покрова, см. При наведении курсора мыши на число - состояние снежного покрова и степень покрытия местности в баллах.